Location: Wyoming Infrared Observatory
(41.0971°N, 105.9765°W)
Time: 03:47:56
(UTC-06:00)

Amateur Radio Satellites - All Passes

Search period start: 01 July 2016 03:17
Search period end: 02 July 2016 03:17
Location: Wyoming Infrared Observatory, 41.0971°N, 105.9765°W

Satellite Date Start Highest point End Downlink Frequencies (MHz)
Time Altitude Azimuth
ITUPSAT 1 01 Jul 03:18:10 03:22:34 36° 262° (W) 03:27:01 437.325
KKS-1 01 Jul 03:19:37 03:23:26 29° 69° (ENE) 03:27:16 437.445
JAS-2 01 Jul 03:26:34 03:29:54 16° 301° (WNW) 03:33:05 435.910
MOZHAYETS 4 01 Jul 03:29:41 03:33:51 34° 70° (ENE) 03:38:03
PCSat 01 Jul 03:35:18 03:39:30 22° 314° (NW) 03:43:44 145.827
BEESAT 2 01 Jul 03:37:35 03:41:06 30° 310° (NW) 03:44:39 435.950
GONETS M04 01 Jul 03:39:20 03:42:39 12° 56° (NE) 03:45:58
Oscar 19 01 Jul 03:42:17 03:46:28 26° 294° (WNW) 03:50:40 437.125/150
STARS 01 Jul 03:44:17 03:47:57 27° 68° (ENE) 03:51:38 437.465
AIST 1 01 Jul 03:46:34 03:50:27 33° 77° (ENE) 03:54:19
ITAMSAT 1 01 Jul 04:10:05 04:15:22 89° 279° (W) 04:20:34 435.822/435.867
Gurwin Techsat 1B 01 Jul 04:21:34 04:25:59 27° 294° (WNW) 04:30:23 435.225
AO-7 01 Jul 04:26:15 04:34:21 50° 101° (ESE) 04:42:21 29.400- 29.500
O/OREOS (USA 219) 01 Jul 04:31:36 04:32:06 10° 311° (NW) 04:32:37 437.305
AIST 2 01 Jul 04:42:27 04:46:32 74° 120° (ESE) 04:50:40 435.215
AO-85 01 Jul 04:47:26 04:50:31 17° 40° (NE) 04:53:25 145.980
KKS-1 01 Jul 04:56:20 04:59:59 25° 264° (W) 05:03:39 437.445
CUBESAT XI-V 01 Jul 05:04:44 05:09:06 40° 71° (ENE) 05:13:30 437.345
MOZHAYETS 4 01 Jul 05:07:21 05:11:04 24° 266° (W) 05:14:48
STARS 01 Jul 05:20:33 05:24:14 27° 264° (W) 05:27:57 437.465
AIST 1 01 Jul 05:24:49 05:27:47 19° 273° (W) 05:30:45
Cosmos 2499 01 Jul 05:26:47 05:34:58 42° 72° (ENE) 05:42:37 435.465 / 435.565
GONETS M04 01 Jul 05:32:46 05:41:27 64° 79° (E) 05:50:08
PHONESAT 2.4 01 Jul 05:35:18 05:37:38 20° 153° (SSE) 05:39:58 2401.200-2431.200
ITAMSAT 1 01 Jul 05:52:02 05:54:01 12° 302° (WNW) 05:56:01 435.822/435.867
NOAA 15 01 Jul 05:52:25 05:54:49 13° 90° (E) 05:57:13 137.62
STRAND 1 01 Jul 05:59:49 06:02:10 13° 59° (ENE) 06:04:32 437.568
BRITE-PL 01 Jul 06:05:32 06:07:49 14° 92° (E) 06:10:08 437.365/2234.400
HORYU 2 01 Jul 06:11:38 06:16:09 81° 285° (WNW) 06:20:38 437.375
AO-7 01 Jul 06:19:20 06:26:53 39° 300° (WNW) 06:34:25 29.400- 29.500
AIST 2 01 Jul 06:23:14 06:25:31 14° 319° (NW) 06:27:48 435.215
GOMX 1 01 Jul 06:25:38 06:26:22 10° 90° (E) 06:27:07 467.674
AO-85 01 Jul 06:27:03 06:31:30 64° 241° (WSW) 06:35:33 145.980
CUSAT 1 01 Jul 06:29:59 06:36:04 27° 90° (E) 06:41:22 437.405
Cubesat XI-IV 01 Jul 06:38:25 06:42:58 27° 95° (E) 06:47:29 437.490
CUBESAT XI-V 01 Jul 06:43:07 06:46:37 21° 267° (W) 06:50:08 437.345
NOAA 18 01 Jul 06:56:11 07:01:28 42° 99° (E) 07:06:41 137.9125
ISS 01 Jul 07:05:38 07:07:46 16° 131° (SE) 07:09:54 145.825
DOVE 4 01 Jul 07:09:20 07:12:02 16° 93° (E) 07:14:50 437.250
PHONESAT 2.4 01 Jul 07:10:53 07:13:55 63° 169° (SSE) 07:16:57 2401.200-2431.200
CUTE-I 01 Jul 07:11:19 07:16:37 55° 101° (E) 07:21:51 437.470
DANDE 01 Jul 07:18:09 07:25:32 36° 90° (E) 07:32:16 436.750
Cosmos 2499 01 Jul 07:20:01 07:28:04 43° 273° (W) 07:35:39 435.465 / 435.565
LilacSat-2 01 Jul 07:26:57 07:30:52 90° 292° (WNW) 07:34:46 437.200
NOAA 15 01 Jul 07:29:53 07:35:08 75° 286° (WNW) 07:40:21 137.62
GONETS M04 01 Jul 07:30:41 07:37:33 27° 278° (W) 07:44:28
STRAND 1 01 Jul 07:35:28 07:40:37 83° 257° (WSW) 07:45:49 437.568
BRITE-PL 01 Jul 07:42:38 07:46:34 43° 287° (WNW) 07:50:35 437.365/2234.400
CINEMA 3 01 Jul 07:44:33 07:46:01 11° 90° (E) 07:47:31 145.822/145.860
CANX-2 01 Jul 07:48:51 07:49:39 10° 89° (E) 07:50:28 2200.000
GOMX 1 01 Jul 08:00:38 08:04:50 65° 285° (WNW) 08:09:15 467.674
CUTE 1.7 + AOD 2 01 Jul 08:06:43 08:09:14 15° 91° (E) 08:11:44 437.475
SEEDS 01 Jul 08:07:13 08:07:30 10° 89° (E) 08:07:47 437.485
CUSAT 1 01 Jul 08:10:29 08:17:56 56° 282° (WNW) 08:24:05 437.405
Cubesat XI-IV 01 Jul 08:18:08 08:23:06 39° 292° (WNW) 08:28:02 437.490
PRISM 01 Jul 08:24:23 08:28:21 47° 73° (ENE) 08:32:21 437.425
HO-68 01 Jul 08:24:54 08:31:20 34° 96° (E) 08:37:43 435.675
AAUSAT CUBESAT 2 01 Jul 08:36:18 08:38:03 12° 90° (E) 08:39:46 437.432
NOAA 18 01 Jul 08:37:17 08:41:52 27° 296° (WNW) 08:46:28 137.9125
ISS 01 Jul 08:40:42 08:43:54 56° 328° (NNW) 08:47:08 145.825
DOVE 4 01 Jul 08:45:43 08:49:56 48° 287° (WNW) 08:54:23 437.250
PHONESAT 2.4 01 Jul 08:47:25 08:50:29 77° 184° (S) 08:53:33 2401.200-2431.200
CUTE-I 01 Jul 08:52:21 08:56:13 21° 297° (WNW) 09:00:04 437.470
CUBEBUG 2 01 Jul 08:56:29 09:00:01 21° 93° (E) 09:03:34 437.445
DANDE 01 Jul 09:00:01 09:08:10 52° 284° (WNW) 09:15:28 436.750
ZACube-1 01 Jul 09:10:38 09:12:44 13° 90° (E) 09:14:49 437.345
COMPASS 1 01 Jul 09:11:39 09:15:36 40° 98° (E) 09:19:31 437.405
NOAA 15 01 Jul 09:13:52 09:13:59 10° 304° (NW) 09:14:07 137.62
Oscar 11 01 Jul 09:14:24 09:16:40 14° 91° (E) 09:18:56 145.826/435.025
ANTELSAT 01 Jul 09:14:37 09:16:11 12° 61° (ENE) 09:17:46 437.575/2403.000
CINEMA 3 01 Jul 09:18:57 09:23:33 73° 284° (WNW) 09:28:21 145.822/145.860
CANX-2 01 Jul 09:21:41 09:25:57 65° 284° (WNW) 09:30:10 2200.000
FUNcube-1 01 Jul 09:25:38 09:28:45 18° 92° (E) 09:31:50 145.935
AUBIESAT-1 01 Jul 09:30:38 09:33:20 17° 99° (E) 09:36:07 437.475
BEESAT 3 01 Jul 09:34:56 09:36:36 12° 40° (NE) 09:38:17 437.485
UWE-3 01 Jul 09:36:50 09:41:09 37° 98° (E) 09:45:28 435.000/436.395/437.385
SEEDS 01 Jul 09:39:25 09:43:39 66° 284° (WNW) 09:47:48 437.485
CUTE 1.7 + AOD 2 01 Jul 09:41:13 09:45:18 45° 288° (WNW) 09:49:22 437.475
DELFI C3 01 Jul 09:56:41 09:59:19 17° 93° (E) 10:01:56 145.870
PRISM 01 Jul 10:01:44 10:03:55 14° 268° (W) 10:06:07 437.425
TIGRISAT 01 Jul 10:02:31 10:06:26 35° 70° (ENE) 10:10:27 435.000
RS-15 01 Jul 10:07:30 10:15:49 24° 100° (E) 10:24:23 29.354- 29.394
UNISAT 6 01 Jul 10:08:31 10:12:36 43° 72° (ENE) 10:16:49 437.425
AAUSAT CUBESAT 2 01 Jul 10:09:47 10:13:51 53° 287° (WNW) 10:17:52 437.432
M-CUBED/EXP-1 PRIME 01 Jul 10:11:35 10:15:33 59° 106° (ESE) 10:19:49 437.505
HO-68 01 Jul 10:12:21 10:19:10 47° 294° (WNW) 10:25:57 435.675
BEESAT 2 01 Jul 10:18:10 10:20:56 18° 44° (NE) 10:23:40 435.950
ISS 01 Jul 10:18:44 10:20:54 16° 347° (NNW) 10:23:03 145.825
PHONESAT 2.4 01 Jul 10:24:08 10:26:55 31° 201° (SSW) 10:29:41 2401.200-2431.200
CUBEBUG 2 01 Jul 10:32:23 10:36:44 40° 288° (WNW) 10:41:07 437.445
PCSat 01 Jul 10:38:19 10:43:35 48° 55° (NE) 10:48:48 145.827
ZACube-1 01 Jul 10:44:51 10:49:23 62° 286° (WNW) 10:53:54 437.345
ANTELSAT 01 Jul 10:47:58 10:52:16 70° 258° (WSW) 10:56:42 437.575/2403.000
COMPASS 1 01 Jul 10:48:05 10:50:51 17° 294° (WNW) 10:53:35 437.405
Oscar 11 01 Jul 10:48:52 10:53:06 51° 287° (WNW) 10:57:18 145.826/435.025
DANDE 01 Jul 10:51:31 10:52:23 10° 302° (WNW) 10:53:15 436.750
Cosmos 2491 01 Jul 10:55:33 11:03:16 33° 70° (ENE) 11:10:55 435.465 / 435.565
FUNcube-1 01 Jul 11:00:49 11:05:10 45° 288° (WNW) 11:09:31 145.935
AUBIESAT-1 01 Jul 11:04:05 11:07:53 42° 292° (WNW) 11:11:56 437.475
BEESAT 3 01 Jul 11:10:52 11:14:51 84° 237° (WSW) 11:18:47 437.485
UWE-3 01 Jul 11:13:47 11:17:22 23° 293° (WNW) 11:20:58 435.000/436.395/437.385
NANOSAT C BR1 01 Jul 11:17:00 11:20:50 37° 71° (ENE) 11:24:44 145.865
O/OREOS (USA 219) 01 Jul 11:19:09 11:22:22 19° 56° (NE) 11:25:35 437.305
QB50P1 01 Jul 11:21:42 11:25:41 44° 72° (ENE) 11:29:42 145.935-145.965
POPSAT HIP 1 01 Jul 11:25:11 11:29:12 48° 73° (ENE) 11:33:15 437.405
HUMSAT D 01 Jul 11:30:34 11:34:54 83° 283° (WNW) 11:39:12 437.325/437.525
DELFI C3 01 Jul 11:30:39 11:34:18 35° 289° (WNW) 11:37:54 145.870
DUCHIFAT 1 01 Jul 11:35:44 11:39:48 57° 74° (ENE) 11:43:55 145.980
QB50P2 01 Jul 11:38:10 11:42:20 74° 76° (ENE) 11:46:34 145.880/145.840
TIGRISAT 01 Jul 11:40:00 11:43:14 20° 267° (W) 11:46:31 435.000
POLYITAN 1 01 Jul 11:40:48 11:44:58 76° 75° (ENE) 11:49:12 437.675
UNISAT 6 01 Jul 11:46:46 11:49:34 17° 268° (W) 11:52:24 437.425
M-CUBED/EXP-1 PRIME 01 Jul 11:47:48 11:49:45 13° 300° (WNW) 11:51:44 437.505
JAS-2 01 Jul 11:50:38 11:57:10 34° 66° (ENE) 12:03:09 435.910
BEESAT 2 01 Jul 11:55:10 11:59:02 50° 242° (WSW) 12:02:52 435.950
ISS 01 Jul 11:56:33 11:58:21 14° 7° (N) 12:00:08 145.825
AISAT 01 Jul 12:03:46 12:07:19 24° 95° (E) 12:10:52 437.250
ESTCUBE 1 01 Jul 12:12:17 12:16:37 46° 99° (E) 12:20:55 437.505/2401.250
DX 1 01 Jul 12:12:36 12:15:56 21° 95° (E) 12:19:15 434.975-435.025
RS-15 01 Jul 12:15:08 12:26:34 88° 301° (WNW) 12:38:43 29.354- 29.394
BUGSAT 1 01 Jul 12:18:26 12:22:25 80° 76° (ENE) 12:26:27 437.445
PCSat 01 Jul 12:22:23 12:26:39 24° 253° (WSW) 12:30:54 145.827
YUBILEINY 01 Jul 12:35:08 12:43:34 57° 90° (E) 12:52:05 435.215
CUBEBUG 1 01 Jul 12:41:38 12:45:57 66° 102° (ESE) 12:50:14 437.445
Cosmos 2491 01 Jul 12:52:03 13:00:25 54° 270° (W) 13:08:47 435.465 / 435.565
NANOSAT C BR1 01 Jul 12:53:52 12:56:42 18° 267° (W) 12:59:34 145.865
50 SAT 01 Jul 12:54:07 12:57:49 79° 283° (WNW) 13:01:27 437.505
O/OREOS (USA 219) 01 Jul 12:57:43 13:01:59 44° 253° (WSW) 13:06:16 437.305
VELOX 1 01 Jul 12:58:14 13:02:39 90° 104° (ESE) 13:07:03 145.980
QB50P1 01 Jul 12:59:17 13:01:41 15° 268° (W) 13:04:07 145.935-145.965
POPSAT HIP 1 01 Jul 13:03:05 13:05:16 14° 269° (W) 13:07:27 437.405
AIST 2 01 Jul 13:03:53 13:07:54 45° 53° (NE) 13:11:54 435.215
DUCHIFAT 1 01 Jul 13:14:28 13:15:52 11° 270° (W) 13:17:16 145.980
SPROUT 01 Jul 13:17:02 13:21:18 65° 101° (ESE) 13:25:34 437.525
Oscar 19 01 Jul 13:19:12 13:24:12 56° 72° (ENE) 13:29:13 437.125/150
UKube-1 01 Jul 13:21:49 13:26:09 81° 285° (WNW) 13:30:26 .
ISS 01 Jul 13:32:33 13:35:33 32° 27° (NNE) 13:38:32 145.825
JAS-2 01 Jul 13:34:42 13:41:58 48° 261° (W) 13:48:38 435.910
Cosmos 2504 01 Jul 13:36:12 13:43:50 45° 87° (E) 13:51:56 435.465 / 435.565
AO-7 01 Jul 13:37:21 13:41:48 16° 46° (NE) 13:46:15 29.400- 29.500
AISAT 01 Jul 13:39:56 13:43:48 31° 291° (WNW) 13:47:39 437.250
DX 1 01 Jul 13:48:17 13:52:10 33° 291° (WNW) 13:56:04 434.975-435.025
ESTCUBE 1 01 Jul 13:50:06 13:53:03 18° 296° (WNW) 13:55:59 437.505/2401.250
ITAMSAT 1 01 Jul 13:50:41 13:54:11 18° 62° (ENE) 13:57:42 435.822/435.867
Gurwin Techsat 1B 01 Jul 14:02:07 14:07:20 62° 73° (ENE) 14:12:36 435.225
CUBEBUG 1 01 Jul 14:20:01 14:21:40 12° 298° (WNW) 14:23:20 437.445
TISAT 1 01 Jul 14:25:14 14:29:29 87° 281° (W) 14:33:42 437.305
RS-15 01 Jul 14:30:43 14:40:56 33° 329° (NNW) 14:51:38 29.354- 29.394
YUBILEINY 01 Jul 14:33:17 14:40:48 32° 291° (WNW) 14:48:24 435.215
AIST 2 01 Jul 14:43:20 14:46:01 17° 250° (WSW) 14:48:42 435.215
SWISSCUBE 01 Jul 14:50:17 14:54:39 34° 97° (E) 14:58:57 437.505
SPROUT 01 Jul 14:55:02 14:56:42 12° 298° (WNW) 14:58:22 437.525
Oscar 19 01 Jul 15:00:30 15:03:51 17° 268° (W) 15:07:13 437.125/150
SO-50 01 Jul 15:08:55 15:13:36 48° 117° (ESE) 15:18:19 436.795
ISS 01 Jul 15:09:01 15:11:59 32° 224° (SW) 15:14:55 145.825
BEESAT 01 Jul 15:14:55 15:19:39 55° 101° (E) 15:24:19 436.000
ITUPSAT 1 01 Jul 15:18:12 15:22:57 58° 101° (E) 15:27:40 437.325
AO-7 01 Jul 15:24:48 15:33:00 66° 67° (ENE) 15:41:17 29.400- 29.500
ITAMSAT 1 01 Jul 15:28:02 15:33:10 59° 259° (WSW) 15:38:21 435.822/435.867
Cosmos 2504 01 Jul 15:29:36 15:37:14 40° 288° (WNW) 15:45:22 435.465 / 435.565
Gurwin Techsat 1B 01 Jul 15:44:23 15:47:42 17° 269° (W) 15:51:00 435.225
AIST 1 01 Jul 16:16:26 16:19:37 20° 88° (E) 16:22:46
SWISSCUBE 01 Jul 16:28:20 16:32:17 26° 294° (WNW) 16:36:12 437.505
GONETS M04 01 Jul 16:43:15 16:46:43 13° 74° (ENE) 16:50:12
KKS-1 01 Jul 16:46:15 16:50:40 59° 101° (E) 16:55:03 437.445
NOAA 18 01 Jul 16:46:20 16:48:06 12° 56° (NE) 16:49:52 137.9125
RS-15 01 Jul 16:49:49 16:58:46 23° 4° (N) 17:07:51 29.354- 29.394
SO-50 01 Jul 16:50:18 16:54:19 25° 315° (NW) 16:58:21 436.795
BEESAT 01 Jul 16:53:55 16:56:59 17° 297° (WNW) 17:00:02 436.000
CUTE-I 01 Jul 16:56:59 16:59:07 12° 58° (ENE) 17:01:16 437.470
ITUPSAT 1 01 Jul 16:57:21 17:00:18 16° 298° (WNW) 17:03:15 437.325
MOZHAYETS 4 01 Jul 17:01:13 17:05:53 82° 103° (ESE) 17:10:30
STARS 01 Jul 17:09:04 17:13:23 52° 100° (E) 17:17:42 437.465
HORYU 2 01 Jul 17:09:14 17:13:39 88° 250° (WSW) 17:18:08 437.375
NOAA 15 01 Jul 17:11:41 17:15:44 23° 64° (ENE) 17:19:48 137.62
BRITE-PL 01 Jul 17:15:55 17:19:27 21° 68° (ENE) 17:22:49 437.365/2234.400
AO-7 01 Jul 17:19:30 17:26:17 27° 265° (W) 17:33:09 29.400- 29.500
GOMX 1 01 Jul 17:33:39 17:35:32 13° 64° (ENE) 17:37:22 467.674
AIST 1 01 Jul 17:53:08 17:56:59 31° 284° (WNW) 18:00:50
Cubesat XI-IV 01 Jul 18:00:07 18:05:10 44° 70° (ENE) 18:10:16 437.490
DANDE 01 Jul 18:01:47 18:03:39 12° 59° (ENE) 18:05:20 436.750
Cosmos 2499 01 Jul 18:02:49 18:10:02 33° 84° (E) 18:17:35 435.465 / 435.565
LilacSat-2 01 Jul 18:08:46 18:12:19 41° 73° (ENE) 18:15:56 437.200
DOVE 4 01 Jul 18:15:46 18:18:09 15° 65° (ENE) 18:20:32 437.250
NOAA 18 01 Jul 18:22:23 18:27:50 79° 74° (ENE) 18:33:22 137.9125
KKS-1 01 Jul 18:24:25 18:26:43 14° 298° (WNW) 18:29:02 437.445
CUTE-I 01 Jul 18:33:00 18:38:21 88° 74° (ENE) 18:43:45 437.470
GONETS M04 01 Jul 18:33:15 18:41:54 74° 94° (E) 18:50:34
CUBESAT XI-V 01 Jul 18:38:14 18:42:52 81° 285° (WNW) 18:47:27 437.345
MOZHAYETS 4 01 Jul 18:41:00 18:42:21 11° 299° (WNW) 18:43:41
STARS 01 Jul 18:46:44 18:49:19 15° 297° (WNW) 18:51:54 437.465
CUSAT 1 01 Jul 18:47:38 18:50:56 60° 263° (W) 18:53:39 437.405
NOAA 15 01 Jul 18:50:07 18:55:12 47° 260° (W) 19:00:18 137.62
BRITE-PL 01 Jul 18:53:01 18:57:43 42° 261° (W) 19:02:06 437.365/2234.400
HO-68 01 Jul 18:54:13 18:59:54 26° 59° (ENE) 19:05:36 435.675
CUTE 1.7 + AOD 2 01 Jul 19:00:34 19:02:07 12° 63° (ENE) 19:03:42 437.475
RS-15 01 Jul 19:04:42 19:16:05 40° 38° (NE) 19:27:24 29.354- 29.394
GOMX 1 01 Jul 19:08:42 19:13:12 62° 259° (W) 19:17:28 467.674
Cubesat XI-IV 01 Jul 19:41:11 19:45:25 24° 266° (W) 19:49:40 437.490
DANDE 01 Jul 19:42:56 19:47:10 42° 268° (W) 19:50:24 436.750
LilacSat-2 01 Jul 19:45:01 19:46:50 13° 269° (W) 19:48:40 437.200
STRAND 1 01 Jul 19:46:23 19:51:03 34° 97° (E) 19:55:40 437.568
DOVE 4 01 Jul 19:51:25 19:55:32 46° 261° (W) 19:59:33 437.250
Cosmos 2499 01 Jul 19:54:29 20:02:42 55° 284° (WNW) 20:11:23 435.465 / 435.565
CUBEBUG 2 01 Jul 19:55:32 19:58:06 16° 64° (ENE) 20:00:44 437.445
COMPASS 1 01 Jul 20:02:22 20:05:56 27° 69° (ENE) 20:09:31 437.405
NOAA 18 01 Jul 20:06:36 20:09:06 13° 270° (W) 20:11:37 137.9125
Oscar 11 01 Jul 20:10:14 20:11:44 12° 62° (ENE) 20:13:16 145.826/435.025
CANX-2 01 Jul 20:13:48 20:18:05 85° 77° (ENE) 20:22:25 2200.000
CUTE-I 01 Jul 20:17:36 20:19:04 11° 272° (W) 20:20:33 437.470
AUBIESAT-1 01 Jul 20:17:42 20:19:48 16° 61° (ENE) 20:21:56 437.475
CINEMA 3 01 Jul 20:20:43 20:24:51 81° 259° (W) 20:29:04 145.822/145.860
FUNcube-1 01 Jul 20:22:14 20:24:19 13° 63° (ENE) 20:26:25 145.935
SEEDS 01 Jul 20:30:28 20:34:44 82° 75° (ENE) 20:39:01 437.485
GONETS M04 01 Jul 20:32:54 20:39:35 24° 295° (WNW) 20:46:19
CUTE 1.7 + AOD 2 01 Jul 20:33:08 20:37:23 67° 259° (WSW) 20:41:42 437.475
UWE-3 01 Jul 20:34:05 20:37:41 28° 69° (ENE) 20:41:23 435.000/436.395/437.385
AO-85 01 Jul 20:39:48 20:44:58 46° 116° (ESE) 20:50:01 145.980
HO-68 01 Jul 20:39:59 20:47:04 64° 257° (WSW) 20:54:13 435.675
DELFI C3 01 Jul 20:44:16 20:45:23 11° 63° (ENE) 20:46:30 145.870
M-CUBED/EXP-1 PRIME 01 Jul 20:58:56 21:02:10 70° 70° (ENE) 21:05:28 437.505
AAUSAT CUBESAT 2 01 Jul 20:59:17 21:03:28 85° 255° (WSW) 21:07:42 437.432
RS-15 01 Jul 21:17:25 21:29:43 76° 243° (WSW) 21:41:52 29.354- 29.394
STRAND 1 01 Jul 21:25:41 21:30:07 29° 293° (WNW) 21:34:30 437.568
CUBEBUG 2 01 Jul 21:30:20 21:34:20 45° 261° (W) 21:38:29 437.445
COMPASS 1 01 Jul 21:37:58 21:41:26 25° 265° (W) 21:44:57 437.405
ZACube-1 01 Jul 21:40:16 21:44:29 81° 256° (WSW) 21:48:51 437.345
PRISM 01 Jul 21:40:59 21:45:04 79° 103° (ESE) 21:49:08 437.425
Oscar 11 01 Jul 21:42:58 21:47:17 70° 259° (WSW) 21:51:39 145.826/435.025
AUBIESAT-1 01 Jul 21:51:17 21:54:07 26° 258° (WSW) 21:57:00 437.475
FUNcube-1 01 Jul 21:55:53 22:00:02 57° 260° (W) 22:04:19 145.935
Cosmos 2499 01 Jul 21:56:27 21:58:11 11° 307° (NW) 21:59:55 435.465 / 435.565
UWE-3 01 Jul 22:10:41 22:14:08 24° 266° (W) 22:17:39 435.000/436.395/437.385
DELFI C3 01 Jul 22:15:41 22:19:42 64° 260° (W) 22:23:43 145.870
AO-85 01 Jul 22:20:58 22:25:39 29° 313° (NW) 22:30:11 145.980
HUMSAT D 01 Jul 22:21:19 22:25:27 65° 75° (ENE) 22:29:41 437.325/437.525
ANTELSAT 01 Jul 22:39:55 22:43:49 25° 95° (E) 22:47:43 437.575/2403.000
YUBILEINY 01 Jul 22:45:44 22:53:06 28° 68° (ENE) 23:00:23 435.215
AISAT 01 Jul 23:01:19 23:04:41 22° 66° (ENE) 23:08:03 437.250
DX 1 01 Jul 23:08:24 23:11:29 19° 65° (ENE) 23:14:35 434.975-435.025
ESTCUBE 1 01 Jul 23:11:30 23:15:46 42° 71° (ENE) 23:20:03 437.505/2401.250
QB50P2 01 Jul 23:25:06 23:26:50 12° 91° (E) 23:28:35 145.880/145.840
POLYITAN 1 01 Jul 23:27:37 23:29:29 13° 91° (E) 23:31:21 437.675
TIGRISAT 01 Jul 23:29:49 23:34:31 81° 102° (ESE) 23:39:14 435.000
Cosmos 2504 01 Jul 23:30:02 23:35:28 17° 60° (ENE) 23:40:44 435.465 / 435.565
50 SAT 01 Jul 23:31:36 23:35:07 42° 73° (ENE) 23:38:40 437.505
RS-15 01 Jul 23:32:55 23:40:01 18° 264° (W) 23:47:07 29.354- 29.394
UNISAT 6 01 Jul 23:36:15 23:40:57 83° 283° (WNW) 23:45:39 437.425
CUBEBUG 1 01 Jul 23:37:15 23:41:28 53° 73° (ENE) 23:45:41 437.445
SO-50 01 Jul 23:40:36 23:45:03 41° 51° (NE) 23:49:21 436.795
VELOX 1 01 Jul 23:55:06 23:59:29 78° 76° (ENE) 00:03:55 145.980
Cosmos 2491 01 Jul 23:56:49 00:04:39 38° 86° (E) 00:12:27 435.465 / 435.565
HUMSAT D 02 Jul 00:01:00 00:01:32 10° 271° (W) 00:02:04 437.325/437.525
BUGSAT 1 02 Jul 00:02:21 00:03:42 11° 91° (E) 00:05:03 437.445
SPROUT 02 Jul 00:10:19 00:14:23 47° 73° (ENE) 00:18:29 437.525
UKube-1 02 Jul 00:15:53 00:20:11 83° 76° (ENE) 00:24:31 .
ANTELSAT 02 Jul 00:16:20 00:20:31 33° 291° (WNW) 00:24:42 437.575/2403.000
NANOSAT C BR1 02 Jul 00:36:33 00:40:49 72° 102° (ESE) 00:45:04 145.865
AISAT 02 Jul 00:36:56 00:40:57 34° 263° (W) 00:44:58 437.250
QB50P1 02 Jul 00:41:47 00:46:04 87° 103° (ESE) 00:50:21 145.935-145.965
YUBILEINY 02 Jul 00:41:48 00:50:32 65° 268° (W) 00:59:12 435.215
DX 1 02 Jul 00:43:21 00:47:24 38° 261° (W) 00:51:28 434.975-435.025
POPSAT HIP 1 02 Jul 00:45:22 00:49:40 87° 280° (W) 00:53:56 437.405
JAS-2 02 Jul 00:45:57 00:49:58 21° 91° (E) 00:53:50 435.910
ESTCUBE 1 02 Jul 00:49:36 00:52:44 18° 267° (W) 00:55:54 437.505/2401.250
DUCHIFAT 1 02 Jul 00:55:16 00:59:31 75° 285° (WNW) 01:03:46 145.980
QB50P2 02 Jul 00:58:47 01:02:59 57° 286° (WNW) 01:07:11 145.880/145.840
POLYITAN 1 02 Jul 01:01:25 01:05:37 56° 286° (WNW) 01:09:49 437.675
BEESAT 3 02 Jul 01:02:44 01:05:09 16° 110° (ESE) 01:07:35 437.485
50 SAT 02 Jul 01:07:27 01:09:00 12° 268° (W) 01:10:35 437.505
TIGRISAT 02 Jul 01:08:54 01:10:32 12° 299° (WNW) 01:12:10 435.000
CUBEBUG 1 02 Jul 01:15:55 01:18:04 13° 269° (W) 01:20:12 437.445
TISAT 1 02 Jul 01:16:30 01:20:37 67° 74° (ENE) 01:24:46 437.305
PCSat 02 Jul 01:19:50 01:24:56 44° 112° (ESE) 01:30:04 145.827
Cosmos 2504 02 Jul 01:21:29 01:30:25 80° 81° (E) 01:38:51 435.465 / 435.565
SO-50 02 Jul 01:21:40 01:25:14 22° 249° (WSW) 01:28:44 436.795
Oscar 19 02 Jul 01:31:41 01:35:20 19° 93° (E) 01:38:58 437.125/150
O/OREOS (USA 219) 02 Jul 01:31:43 01:35:00 20° 101° (ESE) 01:38:17 437.305
BUGSAT 1 02 Jul 01:35:21 01:39:24 57° 286° (WNW) 01:43:29 437.445
BEESAT 2 02 Jul 01:47:12 01:50:32 26° 114° (ESE) 01:53:54 435.950
SPROUT 02 Jul 01:48:16 01:50:36 14° 269° (W) 01:52:56 437.525
Cosmos 2491 02 Jul 01:52:56 02:01:16 47° 285° (WNW) 02:09:37 435.465 / 435.565
SWISSCUBE 02 Jul 01:56:30 02:00:56 39° 70° (ENE) 02:05:24 437.505
NANOSAT C BR1 02 Jul 02:14:49 02:15:57 11° 298° (WNW) 02:17:05 145.865
Gurwin Techsat 1B 02 Jul 02:19:00 02:23:17 24° 94° (E) 02:27:33 435.225
BEESAT 02 Jul 02:20:59 02:25:42 62° 73° (ENE) 02:30:27 436.000
ITUPSAT 1 02 Jul 02:24:36 02:29:21 67° 74° (ENE) 02:34:09 437.325
JAS-2 02 Jul 02:30:11 02:35:26 45° 291° (WNW) 02:40:21 435.910
BEESAT 3 02 Jul 02:38:44 02:42:29 43° 307° (NW) 02:46:16 437.485
YUBILEINY 02 Jul 02:43:33 02:45:26 11° 288° (WNW) 02:47:19 435.215
PCSat 02 Jul 03:03:49 03:08:29 29° 311° (NW) 03:13:11 145.827
